* Astronomy

Members Login
Username 
 
Password 
    Remember Me  
Post Info TOPIC: Asteroid 2012 BT61


L

Posts: 131433
Date:
Asteroid 2012 BT61
Permalink  
 


Orbital elements:
2012 BT61                                                Earth MOID = 0.2898 AU
Epoch 2012 Mar. 14.0 TT = JDT 2456000.5                 MPC
M  56.31035              (2000.0)            P               Q
n   0.25561791     Peri.  144.49027     +0.86486852     -0.47769436
a   2.4589056      Node   244.75100     +0.41209408     +0.85113906
e   0.4857797      Incl.    9.82305     +0.28667214     +0.21764741
P   3.86           H   19.7           G   0.15           U   8

MPEC 2012 - B69



__________________
Page 1 of 1  sorted by
 
Quick Reply

Please log in to post quick replies.



Create your own FREE Forum
Report Abuse
Powered by ActiveBoard